Location: Eisingen in Unterfranken
(49.7591°N, 9.8347°E)
Time: 06:13:42
(UTC+01:00)

N. Korean satellite - Visible Passes

Search period start: 02 December 2022 00:00
Search period end: 12 December 2022 00:00
Orbit: 421 x 453 km, 97.3° (Epoch: 01 December)

Date Brightness Start Highest point End Pass type
(mag) Time Alt. Az. Time Alt. Az. Time Alt. Az.
02 Dec 6.4 05:46:24 10° NNE 05:49:51 80° ESE 05:53:14 10° S visible
02 Dec 9.8 17:54:06 10° WSW 17:55:50 13° W 17:57:35 10° WNW visible
03 Dec 8.6 05:07:58 10° NE 05:10:55 26° E 05:13:50 10° SSE visible
03 Dec 7.5 06:40:33 10° NNW 06:43:21 24° WNW 06:46:07 10° WSW visible
03 Dec 8.3 17:13:35 10° SSW 17:16:44 36° W 17:19:55 10° NNW visible
04 Dec 6.3 06:01:16 10° N 06:04:40 67° WNW 06:08:01 10° SSW visible
05 Dec 7.8 05:22:31 10° NNE 05:25:45 39° E 05:28:56 10° SSE visible
05 Dec 7.9 06:55:42 10° NNW 06:57:59 17° WNW 07:00:16 10° WSW visible
05 Dec 9.0 17:28:43 10° SSW 17:31:33 24° W 17:34:25 10° NW visible
06 Dec 9.6 04:44:37 10° NE 04:46:34 14° E 04:48:30 10° SE visible
06 Dec 6.7 06:16:03 10° N 06:19:19 43° WNW 06:22:32 10° SW visible
07 Dec 6.9 05:37:01 10° NNE 05:40:25 59° E 05:43:43 10° S visible
07 Dec 8.3 07:11:00 10° NW 07:12:27 12° WNW 07:13:55 10° W visible
07 Dec 9.6 17:43:55 10° SW 17:46:14 17° W 17:48:34 10° NW visible
08 Dec 9.0 04:58:37 10° NE 05:01:15 20° E 05:03:50 10° SE visible
08 Dec 7.2 06:30:47 10° N 06:33:48 30° WNW 06:36:46 10° SW visible
08 Dec 7.6 17:03:43 10° S 17:07:01 47° W 17:10:21 10° NNW visible
09 Dec 6.3 05:51:29 10° NNE 05:54:53 89° WNW 05:58:15 10° SSW visible
09 Dec 9.9 17:59:24 10° WSW 18:00:48 12° W 18:02:12 10° WNW visible
10 Dec 8.4 05:12:43 10° NNE 05:15:44 29° E 05:18:42 10° SSE visible
10 Dec 7.6 06:45:28 10° NNW 06:48:06 21° WNW 06:50:41 10° WSW visible
10 Dec 8.5 17:18:21 10° SSW 17:21:26 32° W 17:24:33 10° NNW visible
11 Dec 9.9 04:35:24 10° ENE 04:36:20 11° E 04:37:14 10° ESE visible
11 Dec 6.3 06:05:51 10° N 06:09:12 58° WNW 06:12:29 10° SSW visible
